AirNav   TITAN Aviation Fuels
 
 1098 users online  

KEOP Pike County Airport
Waverly, Ohio, USA

GOING TO WAVERLY?


FAA INFORMATION EFFECTIVE 16 JUNE 2022

Location

FAA Identifier: EOP
Lat/Long: 39-10-01.1000N 082-55-42.0000W
39-10.018333N 082-55.700000W
39.1669722,-82.9283333
(estimated)
Elevation: 661.1 ft. / 201.5 m (surveyed)
Variation: 06W (2000)
From city: 3 miles NE of WAVERLY, OH
Time zone: UTC -4 (UTC -5 during Standard Time)
Zip code: 45690

Airport Operations

Airport use: Open to the public
Control tower: no
ARTCC: INDIANAPOLIS CENTER
FSS: DAYTON FLIGHT SERVICE STATION
NOTAMs facility: DAY (NOTAM-D service available)
Attendance: MON-FRI 0800-1600
EXCLDG MAJOR HOLS.
Wind indicator: lighted
Segmented circle: no
Lights: ACTVT REIL RWY 07 & 25; PAPI RWY 07 & 25; MIRL RWY 07/25 - CTAF. PAPI RWY 07 & 25 OPR CONSLY DAWN-DUSK.
Beacon: white-green (lighted land airport)
Operates sunset to sunrise.

Airport Communications

CTAF/UNICOM: 123.0
WX AWOS-3 at RZT (17 nm N): 119.225 (740-779-1364)
WX AWOS-3 at I43 (20 nm SE): 118.825 (740-286-1760)
WX AWOS-3 at PMH (20 nm S): 125.175 (740-820-2500)
  • APCH/DEP SVC PRVDD BY INDIANAPOLIS ARTCC ON FREQ 135.575/290.5 (PORTSMOUTH RCAG).

Airport Services

Fuel available: 100LL JET-A
100LL:FUEL AVBL H24 SELF SER VIA CREDIT CARD.
Parking: tiedowns
Airframe service: MAJOR
Powerplant service: MAJOR
Bottled oxygen: NONE
Bulk oxygen: NONE

Runway Information

Runway 7/25

Dimensions: 4899 x 75 ft. / 1493 x 23 m
Surface: asphalt, in excellent condition
Weight bearing capacity: 
Single wheel: 58.0
Runway edge lights: medium intensity
RUNWAY 7  RUNWAY 25
Latitude: 39-09.829377N39-10.207002N
Longitude: 082-56.157765W082-55.241542W
Elevation: 658.6 ft.660.7 ft.
Traffic pattern: leftleft
Runway heading: 068 magnetic, 062 true248 magnetic, 242 true
Markings: nonprecision, in good conditionnonprecision, in good condition
Visual slope indicator: 4-light PAPI on left (4.00 degrees glide path)4-light PAPI on left (3.00 degrees glide path)
Runway end identifier lights: yesyes
Touchdown point: yes, no lightsyes, no lights
Obstructions: 10 ft. road, 201 ft. from runway, 205 ft. left of centerline
+10 FT ROAD, 0-200 FT FM THR, 205 FT L OF CNTRLN; +8 FT FENCE, 110-200 FT FM THR, 180-190 FT L OF CNTRLN.
55 ft. tree, 670 ft. from runway, 305 ft. left of centerline, 8:1 slope to clear

Airport Ownership and Management from official FAA records

Ownership: Publicly-owned
Owner: PIKE COUNTY COMMISSIONERS
230 WAVERLY PLZ STE 100
WAVERLY, OH 45690-1288
Phone 740-947-4817
Manager: LISA CUTLER
2577 ALMA OMEGA RD
WAVERLY, OH 45690-9316
Phone 740-947-4952
FAX 740-947-2242.

Airport Operational Statistics

Aircraft based on the field: 10
Single engine airplanes: 9
Multi engine airplanes: 1
    
Aircraft operations: avg 40/week *
62% transient general aviation
38% local general aviation
<1% military
* for 12-month period ending 09 July 2020

Additional Remarks

BIRDS & OTR WILDLIFE ON & INVOF ARPT.
FOR CD CTC INDIANAPOLIS ARTCC AT 317-247-2411.

Instrument Procedures

NOTE: All procedures below are presented as PDF files. If you need a reader for these files, you should download the free Adobe Reader.

NOT FOR NAVIGATION. Please procure official charts for flight.
FAA instrument procedures published for use from 16 June 2022 at 0901Z to 14 July 2022 at 0900z.

 
IAPs - Instrument Approach Procedures
RNAV (GPS) RWY 07   download (238KB)
RNAV (GPS) RWY 25   download (231KB)
NDB RWY 25   download (195KB)
NOTE: Special Take-Off Minimums/Departure Procedures apply   download (230KB)

Other nearby airports with instrument procedures:

KRZT - Ross County Airport (17 nm N)
I43 - James A Rhodes Airport (20 nm SE)
KPMH - Greater Portsmouth Regional Airport (20 nm S)
KCYO - Pickaway County Memorial Airport (21 nm N)
KHOC - Highland County Airport (28 nm W)
 
Loc | Ops | Rwys | IFR | FBO | Links
Com | Nav | Svcs | Stats | Notes
Area around KEOP (Pike County Airport)
 
Road maps at: MapQuest Bing Google
 
Aerial photo
WARNING: Photo may not be current or correct
Aerial photo of KEOP (Pike County Airport)
Do you have a better or more recent aerial photo of Pike County Airport that you would like to share? If so, please send us your photo.

 
Sectional chart

 
Airport diagram
CAUTION: Diagram may not be current
Diagram of KEOP (Pike County Airport)
 
Airport distance calculator
Flying to Pike County Airport? Find the distance to fly.

From to KEOP

Sunrise and sunset
Times for 02-Jul-2022
 Local
(UTC-4)
 Zulu
(UTC)
Morning civil twilight05:3909:39
Sunrise06:1110:11
Sunset21:0101:01
Evening civil twilight21:3301:33

Current date and time
Zulu (UTC)  02-Jul-2022 21:00:08
Local (UTC-4)  02-Jul-2022 17:00:08
 
METAR
KRZT 
17nm N 
022035Z AUTO 03008KT 10SM CLR 29/13 A2998 RMK AO2 PWINO
KI43 
20nm SE 
022035Z AUTO 00000KT 10SM CLR 28/21 A2999 RMK AO2
KPMH 
20nm S 
022035Z AUTO 01006KT 10SM SCT032 30/20 A2998 RMK AO2 T03000200
KUNI 
32nm E 
022035Z AUTO 31003KT 10SM SCT036 SCT043 SCT050 30/20 A2997 RMK AO2 T02960203
KI23 
33nm NW 
022035Z AUTO 33007KT 10SM CLR 29/15 A3000 RMK AO1
TAF
KLCK 
39nm N 
021743Z 0218/0318 35006KT P6SM FEW040 FM022300 02004KT P6SM BKN200 FM030600 VRB02KT P6SM BKN150 FM031100 04005KT P6SM SKC
KILN 
44nm W 
021743Z 0218/0318 34006KT P6SM SCT035 FM022300 36005KT P6SM BKN250 FM030500 03003KT P6SM BKN120 FM031100 04003KT P6SM SCT150 FM031400 06006KT P6SM SKC
NOTAMs
Click for the latest NOTAMs
NOTAMs are issued by the DoD/FAA and will open in a separate window not controlled by AirNav.

 

 
 

FBO, Fuel Providers, and Aircraft Ground Support

  
 Business Name 
 
 Contact 
 
 Services / Description 
 
Fuel Prices
 
Comments
  
Pike County Airport 740-947-4952
no information available

If you are affiliated with Pike County Airport and would like to show here your services, contact info, web link, logo, and more, click here
100LL Jet A
AS $7.49 $5.00 
 Updated 16-Jun-2022
 
   write
AS=Assisted/Self Service
Update Fuel Prices
 

Would you like to see your business listed on this page?

 If your business provides an interesting product or service to pilots, flight crews, aircraft, or users of the Pike County Airport, you should consider listing it here.  To start the listing process, click on the button below
 
Add a business
 

Other Pages about Pike County Airport

Update a link
 
Copyright © AirNav, LLC. All rights reserved. Privacy Policy  Contact